Location: Choisy
(48.7685°N, 2.4187°E)
Time: 19:48:58
(UTC+00:00)

Envisat - Pass Details

Date: 07 March 2024
Orbit: 762 x 764 km, 98.3° (Epoch: 24 April)

Event Time Altitude Azimuth Distance (km) Brightness Sun altitude
Rises 03:13:55 0° 15° (NNE) 3,243 6.9 -30.3°
Reaches altitude 10° 03:16:15 10° 18° (NNE) 2,312 6.0 -30.0°
Enters shadow 03:20:51 66° 62° (ENE) 837 3.3 -29.3°
